| time (UTC) | temp F | wind direction | speed MPH | gust MPH | rain 1hr in | rain 24hr in | rain mn in | humidity % | barometer mb |
| 20260509114903 | 66 | 191 | 3.0 | 10.0 | 0.00 | 0.06 | 0.01 | 66 | 1005.4 |
| 20260509114403 | 66 | 157 | 7.0 | 12.0 | 0.00 | 0.06 | 0.01 | 65 | 1005.5 |
| 20260509113903 | 66 | 165 | 7.0 | 12.0 | 0.00 | 0.06 | 0.01 | 64 | 1005.6 |
| 20260509113403 | 66 | 167 | 3.0 | 14.0 | 0.00 | 0.06 | 0.01 | 65 | 1005.7 |
| 20260509112903 | 66 | 166 | 1.0 | 15.0 | 0.00 | 0.06 | 0.01 | 66 | 1005.7 |
| 20260509112403 | 65 | 201 | 3.0 | 12.0 | 0.00 | 0.06 | 0.01 | 67 | 1005.8 |
| 20260509111903 | 65 | 143 | 7.0 | 14.0 | 0.00 | 0.06 | 0.01 | 67 | 1005.9 |
| 20260509111403 | 64 | 224 | 5.0 | 8.0 | 0.00 | 0.06 | 0.01 | 70 | 1005.9 |
| 20260509110903 | 64 | 160 | 3.0 | 9.0 | 0.00 | 0.06 | 0.01 | 71 | 1005.9 |
| 20260509110404 | 63 | 127 | 0.0 | 3.0 | 0.00 | 0.06 | 0.01 | 73 | 1006.1 |
| 20260509105403 | 63 | 215 | 2.0 | 6.0 | 0.00 | 0.06 | 0.01 | 74 | 1006.2 |
| 20260509104903 | 64 | 175 | 1.0 | 7.0 | 0.00 | 0.06 | 0.01 | 74 | 1006.4 |
| 20260509104403 | 64 | 192 | 3.0 | 6.0 | 0.00 | 0.06 | 0.01 | 75 | 1006.5 |
| 20260509103903 | 63 | 57 | 0.0 | 1.0 | 0.00 | 0.07 | 0.01 | 78 | 1006.4 |
| 20260509103403 | 63 | 57 | 0.0 | 2.0 | 0.00 | 0.07 | 0.01 | 80 | 1006.5 |
| 20260509102903 | 62 | 55 | 1.0 | 3.0 | 0.00 | 0.09 | 0.01 | 80 | 1006.5 |
| 20260509102403 | 62 | 64 | 1.0 | 3.0 | 0.00 | 0.09 | 0.01 | 81 | 1006.6 |
| 20260509101903 | 62 | 63 | 0.0 | 3.0 | 0.00 | 0.12 | 0.01 | 82 | 1006.5 |
| 20260509101403 | 62 | 13 | 2.0 | 5.0 | 0.00 | 0.13 | 0.01 | 82 | 1006.5 |
| 20260509095903 | 61 | 282 | 0.0 | 0.0 | 0.00 | 0.14 | 0.01 | 84 | 1006.5 |
| 20260509095404 | 60 | 282 | 0.0 | 1.0 | 0.00 | 0.14 | 0.01 | 84 | 1006.5 |
| 20260509094903 | 60 | 282 | 1.0 | 3.0 | 0.00 | 0.15 | 0.01 | 84 | 1006.4 |
| 20260509094403 | 60 | 282 | 0.0 | 2.0 | 0.00 | 0.15 | 0.01 | 84 | 1006.4 |
| 20260509093903 | 60 | 282 | 1.0 | 3.0 | 0.00 | 0.15 | 0.01 | 84 | 1006.4 |
| 20260509093403 | 61 | 279 | 1.0 | 3.0 | 0.00 | 0.15 | 0.01 | 84 | 1006.4 |
| 20260509091903 | 61 | 310 | 0.0 | 1.0 | 0.00 | 0.15 | 0.01 | 86 | 1006.4 |
| 20260509091403 | 60 | 309 | 0.0 | 1.0 | 0.00 | 0.15 | 0.01 | 89 | 1006.4 |
| 20260509090904 | 59 | 307 | 0.0 | 1.0 | 0.00 | 0.15 | 0.01 | 91 | 1006.5 |
| 20260509084903 | 56 | 292 | 0.0 | 7.0 | 0.00 | 0.15 | 0.01 | 95 | 1006.5 |
| 20260509084404 | 55 | 280 | 1.0 | 5.0 | 0.00 | 0.16 | 0.01 | 96 | 1006.6 |
| 20260509083904 | 55 | 290 | 0.0 | 0.0 | 0.00 | 0.16 | 0.01 | 97 | 1006.6 |
| 20260509083403 | 54 | 290 | 0.0 | 0.0 | 0.00 | 0.17 | 0.01 | 97 | 1006.4 |
| 20260509082903 | 54 | 290 | 1.0 | 3.0 | 0.00 | 0.17 | 0.01 | 97 | 1006.6 |
| 20260509082403 | 54 | 15 | 0.0 | 1.0 | 0.00 | 0.17 | 0.01 | 98 | 1006.6 |
| 20260509081903 | 54 | 24 | 1.0 | 3.0 | 0.00 | 0.17 | 0.01 | 98 | 1006.5 |
| 20260509080903 | 53 | 303 | 0.0 | 0.0 | 0.00 | 0.17 | 0.01 | 98 | 1006.7 |
| 20260509080403 | 52 | 303 | 1.0 | 3.0 | 0.00 | 0.17 | 0.01 | 99 | 1006.6 |
| 20260509075903 | 52 | 336 | 0.0 | 3.0 | 0.00 | 0.17 | 0.01 | 99 | 1006.6 |
| 20260509075403 | 52 | 336 | 0.0 | 2.0 | 0.00 | 0.17 | 0.01 | 99 | 1006.6 |
| 20260509074903 | 52 | 288 | 1.0 | 3.0 | 0.00 | 0.17 | 0.01 | 99 | 1006.5 |
| 20260509074406 | 52 | 274 | 0.0 | 0.0 | 0.00 | 0.17 | 0.01 | 99 | 1006.5 |
| 20260509073905 | 51 | 274 | 0.0 | 0.0 | 0.00 | 0.17 | 0.01 | 99 | 1006.5 |
| 20260509073403 | 51 | 275 | 0.0 | 0.0 | 0.00 | 0.17 | 0.01 | 99 | 1006.6 |
| 20260509072904 | 50 | 240 | 0.0 | 1.0 | 0.00 | 0.17 | 0.01 | 99 | 1006.6 |
| 20260509072403 | 50 | 240 | 1.0 | 3.0 | 0.00 | 0.17 | 0.01 | 99 | 1006.6 |
| 20260509070903 | 50 | 217 | 2.0 | 5.0 | 0.00 | 0.17 | 0.01 | 99 | 1006.8 |
| 20260509070403 | 50 | 284 | 3.0 | 8.0 | 0.00 | 0.17 | 0.01 | 99 | 1006.8 |
| 20260509065903 | 50 | 188 | 1.0 | 3.0 | 0.00 | 0.17 | 0.01 | 99 | 1006.8 |
| 20260509065404 | 50 | 179 | 1.0 | 3.0 | 0.00 | 0.17 | 0.01 | 99 | 1006.8 |
| 20260509064903 | 50 | 180 | 0.0 | 3.0 | 0.00 | 0.17 | 0.01 | 99 | 1006.8 |
| 20260509064404 | 50 | 178 | 3.0 | 5.0 | 0.00 | 0.17 | 0.01 | 99 | 1006.7 |
| 20260509063903 | 50 | 171 | 0.0 | 0.0 | 0.00 | 0.17 | 0.01 | 99 | 1006.7 |
| 20260509063403 | 50 | 172 | 0.0 | 0.0 | 0.00 | 0.17 | 0.01 | 99 | 1006.7 |
| 20260509062903 | 49 | 172 | 0.0 | 2.0 | 0.00 | 0.17 | 0.01 | 99 | 1006.6 |
| 20260509062403 | 49 | 175 | 4.0 | 7.0 | 0.00 | 0.17 | 0.01 | 99 | 1006.8 |
| 20260509061903 | 49 | 334 | 0.0 | 0.0 | 0.00 | 0.17 | 0.01 | 99 | 1006.6 |
| 20260509060903 | 49 | 266 | 0.0 | 0.0 | 0.00 | 0.17 | 0.01 | 99 | 1006.7 |
| 20260509055903 | 49 | 284 | 0.0 | 2.0 | 0.00 | 0.17 | 0.01 | 99 | 1006.8 |
| 20260509054903 | 49 | 206 | 2.0 | 3.0 | 0.00 | 0.17 | 0.01 | 99 | 1006.5 |
| 20260509053903 | 50 | 232 | 0.0 | 0.0 | 0.00 | 0.17 | 0.01 | 99 | 1006.4 |
| 20260509053403 | 50 | 232 | 0.0 | 0.0 | 0.00 | 0.17 | 0.01 | 99 | 1006.5 |
| 20260509052903 | 50 | 232 | 0.0 | 0.0 | 0.00 | 0.17 | 0.01 | 99 | 1006.5 |
| 20260509052403 | 50 | 232 | 0.0 | 0.0 | 0.01 | 0.17 | 0.01 | 99 | 1006.5 |
| 20260509051906 | 50 | 232 | 0.0 | 0.0 | 0.01 | 0.17 | 0.01 | 99 | 1006.5 |
| 20260509051406 | 50 | 232 | 1.0 | 3.0 | 0.01 | 0.17 | 0.01 | 99 | 1006.5 |
| 20260509050924 | 50 | 171 | 0.0 | 0.0 | 0.01 | 0.17 | 0.01 | 99 | 1006.5 |
| 20260509050404 | 50 | 172 | 1.0 | 3.0 | 0.01 | 0.17 | 0.01 | 99 | 1006.5 |
| 20260509045903 | 50 | 171 | 0.0 | 6.0 | 0.01 | 0.17 | 0.01 | 99 | 1006.4 |
| 20260509045403 | 50 | 169 | 0.0 | 0.0 | 0.01 | 0.17 | 0.01 | 99 | 1006.2 |
| 20260509044903 | 50 | 182 | 0.0 | 0.0 | 0.01 | 0.17 | 0.01 | 99 | 1006.2 |
| 20260509044403 | 50 | 182 | 0.0 | 2.0 | 0.01 | 0.17 | 0.01 | 99 | 1006.3 |
| 20260509043903 | 50 | 184 | 0.0 | 0.0 | 0.01 | 0.17 | 0.01 | 99 | 1006.4 |
| 20260509043403 | 50 | 184 | 0.0 | 0.0 | 0.01 | 0.17 | 0.01 | 99 | 1006.4 |
| 20260509042903 | 50 | 184 | 0.0 | 0.0 | 0.01 | 0.17 | 0.01 | 99 | 1006.4 |
| 20260509042403 | 50 | 184 | 0.0 | 0.0 | 0.00 | 0.16 | 0.00 | 99 | 1006.3 |
| 20260509041903 | 50 | 184 | 0.0 | 0.0 | 0.00 | 0.16 | 0.00 | 99 | 1006.4 |
| 20260509041403 | 50 | 184 | 0.0 | 0.0 | 0.00 | 0.16 | 0.00 | 99 | 1006.4 |
| 20260509040903 | 50 | 184 | 0.0 | 0.0 | 0.00 | 0.16 | 0.00 | 99 | 1006.6 |
| 20260509040403 | 49 | 182 | 0.0 | 5.0 | 0.00 | 0.16 | 0.00 | 100 | 1006.7 |
| 20260509035903 | 49 | 182 | 0.0 | 3.0 | 0.00 | 0.16 | 0.00 | 100 | 1006.7 |
| 20260509035403 | 49 | 182 | 0.0 | 0.0 | 0.00 | 0.16 | 0.00 | 100 | 1006.6 |
| 20260509034903 | 49 | 182 | 0.0 | 0.0 | 0.00 | 0.16 | 0.00 | 100 | 1006.6 |
| 20260509034403 | 49 | 183 | 0.0 | 0.0 | 0.00 | 0.16 | 0.00 | 100 | 1006.7 |
| 20260509033903 | 49 | 183 | 0.0 | 0.0 | 0.00 | 0.16 | 0.00 | 99 | 1006.8 |
| 20260509032403 | 49 | 190 | 0.0 | 0.0 | 0.00 | 0.16 | 0.00 | 99 | 1007.1 |
| 20260509030903 | 49 | 189 | 0.0 | 0.0 | 0.00 | 0.16 | 0.00 | 99 | 1007.3 |
| 20260509030403 | 49 | 189 | 0.0 | 0.0 | 0.00 | 0.16 | 0.00 | 99 | 1007.2 |
| 20260509025903 | 49 | 189 | 0.0 | 0.0 | 0.00 | 0.16 | 0.00 | 99 | 1007.3 |
| 20260509025403 | 50 | 190 | 2.0 | 5.0 | 0.00 | 0.16 | 0.00 | 99 | 1007.4 |
| 20260509024403 | 50 | 184 | 0.0 | 0.0 | 0.00 | 0.16 | 0.00 | 99 | 1007.3 |
| 20260509023903 | 50 | 186 | 0.0 | 3.0 | 0.00 | 0.16 | 0.00 | 99 | 1007.3 |
| 20260509023403 | 50 | 185 | 0.0 | 3.0 | 0.00 | 0.16 | 0.00 | 99 | 1007.2 |
| 20260509022903 | 50 | 186 | 0.0 | 0.0 | 0.00 | 0.16 | 0.00 | 99 | 1007.4 |
| 20260509022403 | 50 | 186 | 1.0 | 3.0 | 0.00 | 0.16 | 0.00 | 99 | 1007.4 |
| 20260509021903 | 50 | 179 | 5.0 | 7.0 | 0.00 | 0.16 | 0.00 | 99 | 1007.5 |
| 20260509020403 | 50 | 178 | 0.0 | 0.0 | 0.00 | 0.16 | 0.00 | 99 | 1007.6 |
| 20260509015903 | 50 | 178 | 0.0 | 0.0 | 0.00 | 0.16 | 0.00 | 99 | 1007.8 |
| 20260509015403 | 50 | 178 | 0.0 | 0.0 | 0.00 | 0.16 | 0.00 | 99 | 1007.9 |
| 20260509014903 | 51 | 178 | 0.0 | 0.0 | 0.00 | 0.16 | 0.00 | 99 | 1008.0 |
| 20260509014403 | 51 | 178 | 0.0 | 0.0 | 0.00 | 0.16 | 0.00 | 99 | 1008.0 |
| 20260509013903 | 51 | 178 | 0.0 | 0.0 | 0.00 | 0.16 | 0.00 | 99 | 1008.1 |
| 20260509013404 | 51 | 177 | 0.0 | 3.0 | 0.00 | 0.16 | 0.00 | 99 | 1008.0 |
| 20260509011903 | 51 | 178 | 0.0 | 1.0 | 0.00 | 0.16 | 0.00 | 98 | 1008.1 |
| 20260509011403 | 51 | 178 | 2.0 | 6.0 | 0.00 | 0.16 | 0.00 | 99 | 1008.2 |
| 20260509010903 | 51 | 179 | 2.0 | 7.0 | 0.00 | 0.16 | 0.00 | 98 | 1008.2 |
| 20260509010403 | 51 | 174 | 1.0 | 3.0 | 0.00 | 0.16 | 0.00 | 98 | 1008.2 |
| 20260509005904 | 51 | 174 | 2.0 | 5.0 | 0.00 | 0.16 | 0.00 | 98 | 1008.3 |
| 20260509005403 | 51 | 175 | 2.0 | 3.0 | 0.00 | 0.16 | 0.00 | 98 | 1008.3 |
| 20260509004903 | 51 | 175 | 2.0 | 5.0 | 0.00 | 0.16 | 0.00 | 98 | 1008.3 |
| 20260509004403 | 52 | 86 | 1.0 | 3.0 | 0.00 | 0.16 | 0.00 | 98 | 1008.4 |
| 20260509003903 | 52 | 76 | 0.0 | 1.0 | 0.00 | 0.16 | 0.00 | 98 | 1008.4 |
| 20260509003403 | 52 | 74 | 0.0 | 0.0 | 0.00 | 0.16 | 0.00 | 98 | 1008.5 |
| 20260509002903 | 52 | 74 | 0.0 | 0.0 | 0.00 | 0.16 | 0.00 | 98 | 1008.5 |
| 20260509001403 | 52 | 74 | 0.0 | 0.0 | 0.00 | 0.16 | 0.00 | 98 | 1008.6 |
| 20260509000903 | 52 | 74 | 0.0 | 0.0 | 0.00 | 0.16 | 0.00 | 98 | 1008.7 |
| 20260508235903 | 53 | 74 | 0.0 | 0.0 | 0.00 | 0.16 | 0.00 | 98 | 1008.9 |
| 20260508235403 | 53 | 74 | 0.0 | 0.0 | 0.00 | 0.16 | 0.00 | 98 | 1008.9 |
| 20260508234903 | 53 | 74 | 0.0 | 0.0 | 0.00 | 0.16 | 0.00 | 98 | 1008.9 |
| 20260508234403 | 53 | 74 | 0.0 | 0.0 | 0.00 | 0.16 | 0.00 | 98 | 1009.0 |
| 20260508233903 | 53 | 74 | 0.0 | 0.0 | 0.00 | 0.16 | 0.00 | 98 | 1009.0 |
| 20260508233403 | 53 | 74 | 0.0 | 0.0 | 0.00 | 0.16 | 0.00 | 97 | 1009.0 |
| 20260508232403 | 53 | 74 | 0.0 | 0.0 | 0.00 | 0.16 | 0.00 | 98 | 1009.1 |
| 20260508231903 | 53 | 74 | 0.0 | 0.0 | 0.00 | 0.16 | 0.00 | 98 | 1009.1 |
| 20260508231403 | 53 | 74 | 0.0 | 0.0 | 0.00 | 0.16 | 0.00 | 98 | 1009.1 |
| 20260508230403 | 53 | 74 | 0.0 | 0.0 | 0.00 | 0.16 | 0.00 | 98 | 1009.1 |
| 20260508225903 | 53 | 74 | 0.0 | 0.0 | 0.00 | 0.16 | 0.00 | 98 | 1009.1 |
| 20260508225403 | 53 | 74 | 0.0 | 0.0 | 0.00 | 0.16 | 0.00 | 98 | 1009.2 |
| 20260508224903 | 53 | 74 | 0.0 | 2.0 | 0.00 | 0.16 | 0.00 | 98 | 1009.3 |
| 20260508224403 | 53 | 75 | 0.0 | 1.0 | 0.00 | 0.16 | 0.00 | 98 | 1009.2 |
| 20260508223903 | 53 | 75 | 0.0 | 1.0 | 0.00 | 0.16 | 0.00 | 98 | 1009.3 |
| 20260508223403 | 53 | 75 | 0.0 | 3.0 | 0.00 | 0.16 | 0.00 | 98 | 1009.3 |
| 20260508222903 | 53 | 74 | 0.0 | 0.0 | 0.00 | 0.16 | 0.00 | 97 | 1009.3 |
| 20260508222403 | 53 | 73 | 0.0 | 0.0 | 0.00 | 0.16 | 0.00 | 97 | 1009.3 |
| 20260508221403 | 53 | 74 | 1.0 | 3.0 | 0.00 | 0.16 | 0.00 | 97 | 1009.4 |
| 20260508220903 | 53 | 91 | 1.0 | 3.0 | 0.00 | 0.16 | 0.00 | 97 | 1009.5 |
| 20260508220403 | 53 | 93 | 1.0 | 3.0 | 0.00 | 0.16 | 0.00 | 97 | 1009.7 |
| 20260508215903 | 53 | 74 | 0.0 | 2.0 | 0.00 | 0.16 | 0.16 | 97 | 1009.6 |
| 20260508215403 | 53 | 74 | 0.0 | 0.0 | 0.00 | 0.16 | 0.16 | 97 | 1009.6 |
| 20260508214903 | 53 | 74 | 0.0 | 0.0 | 0.00 | 0.16 | 0.16 | 97 | 1009.7 |
| 20260508213903 | 53 | 74 | 0.0 | 0.0 | 0.00 | 0.16 | 0.16 | 97 | 1009.9 |
| 20260508213403 | 53 | 74 | 0.0 | 0.0 | 0.00 | 0.16 | 0.16 | 97 | 1009.9 |
| 20260508212904 | 53 | 74 | 1.0 | 2.0 | 0.00 | 0.16 | 0.16 | 97 | 1009.9 |
| 20260508212403 | 53 | 71 | 0.0 | 0.0 | 0.00 | 0.16 | 0.16 | 97 | 1009.9 |
| 20260508211903 | 53 | 71 | 0.0 | 2.0 | 0.00 | 0.16 | 0.16 | 97 | 1009.8 |
| 20260508211403 | 54 | 72 | 1.0 | 2.0 | 0.00 | 0.16 | 0.16 | 97 | 1009.9 |
| 20260508210904 | 54 | 73 | 0.0 | 2.0 | 0.00 | 0.16 | 0.16 | 97 | 1010.0 |
| 20260508210404 | 54 | 73 | 0.0 | 1.0 | 0.00 | 0.16 | 0.16 | 97 | 1010.0 |
| 20260508205903 | 54 | 72 | 0.0 | 0.0 | 0.00 | 0.16 | 0.16 | 97 | 1009.9 |
| 20260508205403 | 54 | 72 | 0.0 | 3.0 | 0.00 | 0.16 | 0.16 | 97 | 1009.9 |
| 20260508204903 | 54 | 73 | 0.0 | 3.0 | 0.00 | 0.16 | 0.16 | 97 | 1009.9 |
| 20260508204403 | 54 | 75 | 0.0 | 3.0 | 0.00 | 0.16 | 0.16 | 97 | 1009.9 |
| 20260508203903 | 54 | 71 | 1.0 | 5.0 | 0.00 | 0.16 | 0.16 | 97 | 1009.9 |
| 20260508202903 | 54 | 81 | 0.0 | 3.0 | 0.00 | 0.16 | 0.16 | 97 | 1009.9 |
| 20260508202403 | 54 | 81 | 0.0 | 0.0 | 0.00 | 0.16 | 0.16 | 97 | 1009.9 |
| 20260508201403 | 54 | 80 | 0.0 | 0.0 | 0.00 | 0.16 | 0.16 | 97 | 1009.8 |
| 20260508200903 | 54 | 80 | 0.0 | 0.0 | 0.00 | 0.16 | 0.16 | 97 | 1009.8 |
| 20260508200403 | 54 | 81 | 0.0 | 3.0 | 0.00 | 0.16 | 0.16 | 96 | 1009.6 |
| 20260508195903 | 54 | 356 | 0.0 | 2.0 | 0.00 | 0.16 | 0.16 | 96 | 1009.6 |
| 20260508195403 | 54 | 355 | 3.0 | 10.0 | 0.00 | 0.16 | 0.16 | 96 | 1009.5 |
| 20260508194903 | 55 | 326 | 6.0 | 9.0 | 0.00 | 0.16 | 0.16 | 96 | 1009.4 |
| 20260508194403 | 55 | 287 | 1.0 | 3.0 | 0.00 | 0.16 | 0.16 | 95 | 1009.4 |
| 20260508193903 | 55 | 288 | 0.0 | 3.0 | 0.00 | 0.16 | 0.16 | 95 | 1009.4 |
| 20260508193403 | 56 | 288 | 0.0 | 0.0 | 0.00 | 0.16 | 0.16 | 94 | 1009.4 |
| 20260508192903 | 56 | 288 | 0.0 | 0.0 | 0.00 | 0.16 | 0.16 | 93 | 1009.2 |
| 20260508192403 | 56 | 289 | 3.0 | 8.0 | 0.00 | 0.16 | 0.16 | 92 | 1009.3 |
| 20260508191903 | 56 | 312 | 4.0 | 6.0 | 0.00 | 0.16 | 0.16 | 90 | 1009.2 |
| 20260508191403 | 56 | 34 | 0.0 | 0.0 | 0.00 | 0.16 | 0.16 | 89 | 1009.2 |
| 20260508190903 | 56 | 34 | 0.0 | 0.0 | 0.00 | 0.16 | 0.16 | 89 | 1009.1 |
| 20260508190403 | 56 | 34 | 0.0 | 1.0 | 0.00 | 0.16 | 0.16 | 89 | 1009.1 |
| 20260508185903 | 56 | 34 | 2.0 | 3.0 | 0.00 | 0.16 | 0.16 | 89 | 1008.9 |
| 20260508184903 | 56 | 30 | 2.0 | 5.0 | 0.00 | 0.16 | 0.16 | 89 | 1008.9 |
| 20260508184403 | 56 | 22 | 0.0 | 3.0 | 0.00 | 0.16 | 0.16 | 90 | 1008.9 |
| 20260508183903 | 56 | 17 | 2.0 | 7.0 | 0.00 | 0.16 | 0.16 | 90 | 1008.8 |
| 20260508183403 | 55 | 40 | 2.0 | 3.0 | 0.00 | 0.16 | 0.16 | 92 | 1008.8 |
| 20260508182903 | 55 | 44 | 2.0 | 3.0 | 0.00 | 0.16 | 0.16 | 92 | 1008.7 |
| 20260508182403 | 55 | 45 | 4.0 | 6.0 | 0.00 | 0.16 | 0.16 | 93 | 1008.7 |
| 20260508181904 | 55 | 50 | 5.0 | 8.0 | 0.00 | 0.16 | 0.16 | 93 | 1008.7 |
| 20260508181403 | 55 | 15 | 5.0 | 9.0 | 0.00 | 0.16 | 0.16 | 94 | 1008.5 |
| 20260508180903 | 55 | 7 | 4.0 | 10.0 | 0.00 | 0.16 | 0.16 | 94 | 1008.6 |
| 20260508180403 | 56 | 31 | 5.0 | 12.0 | 0.00 | 0.16 | 0.16 | 94 | 1008.5 |
| 20260508175904 | 56 | 42 | 7.0 | 12.0 | 0.00 | 0.16 | 0.16 | 94 | 1008.5 |
| 20260508175403 | 57 | 38 | 3.0 | 9.0 | 0.00 | 0.16 | 0.16 | 94 | 1008.4 |
| 20260508174403 | 56 | 64 | 2.0 | 6.0 | 0.00 | 0.16 | 0.16 | 94 | 1008.3 |
| 20260508173903 | 56 | 59 | 2.0 | 3.0 | 0.00 | 0.16 | 0.16 | 94 | 1008.3 |
| 20260508173403 | 56 | 75 | 2.0 | 5.0 | 0.00 | 0.16 | 0.16 | 94 | 1008.3 |
| 20260508172903 | 56 | 42 | 2.0 | 5.0 | 0.00 | 0.16 | 0.16 | 94 | 1008.3 |
| 20260508172403 | 56 | 26 | 3.0 | 6.0 | 0.00 | 0.16 | 0.16 | 94 | 1008.3 |
| 20260508171403 | 56 | 40 | 3.0 | 3.0 | 0.00 | 0.16 | 0.16 | 95 | 1008.3 |
| 20260508170903 | 56 | 115 | 0.0 | 1.0 | 0.00 | 0.16 | 0.16 | 95 | 1008.4 |
| 20260508170403 | 55 | 115 | 1.0 | 2.0 | 0.00 | 0.16 | 0.16 | 95 | 1008.3 |
| 20260508165903 | 56 | 113 | 1.0 | 3.0 | 0.00 | 0.16 | 0.16 | 95 | 1008.3 |
| 20260508165403 | 56 | 50 | 0.0 | 2.0 | 0.01 | 0.16 | 0.16 | 96 | 1008.3 |
| 20260508164903 | 56 | 51 | 1.0 | 3.0 | 0.02 | 0.16 | 0.16 | 95 | 1008.2 |
| 20260508164403 | 57 | 36 | 3.0 | 5.0 | 0.02 | 0.16 | 0.16 | 95 | 1008.2 |
| 20260508163903 | 57 | 44 | 1.0 | 9.0 | 0.03 | 0.16 | 0.16 | 95 | 1008.2 |
| 20260508162903 | 58 | 82 | 0.0 | 0.0 | 0.04 | 0.16 | 0.16 | 95 | 1008.1 |
| 20260508162403 | 57 | 79 | 1.0 | 3.0 | 0.04 | 0.16 | 0.16 | 95 | 1008.0 |
| 20260508161903 | 57 | 193 | 0.0 | 0.0 | 0.05 | 0.16 | 0.16 | 95 | 1008.0 |
| 20260508161403 | 57 | 193 | 0.0 | 0.0 | 0.05 | 0.16 | 0.16 | 95 | 1008.0 |
| 20260508160903 | 57 | 236 | 0.0 | 0.0 | 0.05 | 0.16 | 0.16 | 95 | 1007.9 |
| 20260508160403 | 57 | 236 | 0.0 | 0.0 | 0.05 | 0.16 | 0.16 | 94 | 1007.9 |
| 20260508155904 | 57 | 236 | 0.0 | 0.0 | 0.05 | 0.16 | 0.16 | 94 | 1007.8 |
| 20260508154903 | 57 | 234 | 0.0 | 0.0 | 0.03 | 0.14 | 0.14 | 94 | 1007.8 |
| 20260508154403 | 57 | 234 | 0.0 | 3.0 | 0.02 | 0.13 | 0.13 | 94 | 1007.8 |
| 20260508153903 | 57 | 234 | 2.0 | 7.0 | 0.02 | 0.13 | 0.13 | 94 | 1007.9 |
| 20260508152403 | 58 | 220 | 3.0 | 8.0 | 0.01 | 0.12 | 0.12 | 92 | 1007.9 |
| 20260508151403 | 58 | 355 | 0.0 | 2.0 | 0.00 | 0.11 | 0.11 | 92 | 1007.6 |
| 20260508150903 | 59 | 73 | 0.0 | 0.0 | 0.00 | 0.11 | 0.11 | 92 | 1007.7 |
| 20260508150403 | 58 | 73 | 0.0 | 3.0 | 0.00 | 0.11 | 0.11 | 92 | 1007.7 |
| 20260508145903 | 58 | 59 | 0.0 | 3.0 | 0.00 | 0.11 | 0.11 | 91 | 1007.7 |
| 20260508145403 | 58 | 59 | 2.0 | 6.0 | 0.00 | 0.11 | 0.11 | 91 | 1007.7 |
| 20260508144904 | 58 | 55 | 2.0 | 6.0 | 0.00 | 0.12 | 0.11 | 91 | 1007.6 |
| 20260508144403 | 58 | 31 | 2.0 | 3.0 | 0.00 | 0.13 | 0.11 | 91 | 1007.5 |
| 20260508143904 | 58 | 69 | 0.0 | 3.0 | 0.00 | 0.13 | 0.11 | 92 | 1007.5 |
| 20260508143403 | 58 | 79 | 0.0 | 3.0 | 0.00 | 0.14 | 0.11 | 92 | 1007.6 |
| 20260508142903 | 58 | 51 | 0.0 | 2.0 | 0.00 | 0.14 | 0.11 | 92 | 1007.5 |
| 20260508142403 | 57 | 52 | 2.0 | 6.0 | 0.00 | 0.14 | 0.11 | 93 | 1007.6 |
| 20260508141903 | 57 | 41 | 2.0 | 6.0 | 0.00 | 0.14 | 0.11 | 94 | 1007.6 |
| 20260508141403 | 57 | 129 | 1.0 | 5.0 | 0.00 | 0.14 | 0.11 | 94 | 1007.7 |
| 20260508140903 | 57 | 63 | 2.0 | 5.0 | 0.00 | 0.14 | 0.11 | 95 | 1007.8 |
| 20260508140403 | 57 | 117 | 3.0 | 6.0 | 0.00 | 0.14 | 0.11 | 96 | 1007.9 |
| 20260508135903 | 57 | 107 | 2.0 | 5.0 | 0.00 | 0.14 | 0.11 | 96 | 1007.9 |
| 20260508135403 | 56 | 83 | 1.0 | 3.0 | 0.00 | 0.14 | 0.11 | 97 | 1007.9 |
| 20260508134904 | 56 | 78 | 4.0 | 7.0 | 0.00 | 0.14 | 0.11 | 98 | 1007.9 |
| 20260508134403 | 57 | 100 | 1.0 | 3.0 | 0.00 | 0.14 | 0.11 | 98 | 1008.0 |
| 20260508133904 | 56 | 142 | 0.0 | 1.0 | 0.00 | 0.14 | 0.11 | 99 | 1008.0 |
| 20260508133403 | 56 | 142 | 0.0 | 1.0 | 0.00 | 0.14 | 0.11 | 99 | 1008.1 |
| 20260508132903 | 56 | 132 | 0.0 | 0.0 | 0.00 | 0.14 | 0.11 | 99 | 1008.2 |
| 20260508132403 | 56 | 132 | 0.0 | 2.0 | 0.00 | 0.14 | 0.11 | 99 | 1008.2 |
| 20260508131903 | 56 | 221 | 0.0 | 0.0 | 0.00 | 0.14 | 0.11 | 99 | 1008.2 |
| 20260508130904 | 55 | 222 | 1.0 | 3.0 | 0.01 | 0.14 | 0.11 | 99 | 1008.4 |
| 20260508125903 | 55 | 252 | 5.0 | 10.0 | 0.01 | 0.14 | 0.11 | 99 | 1008.5 |
| 20260508125403 | 54 | 270 | 3.0 | 9.0 | 0.01 | 0.14 | 0.11 | 99 | 1008.4 |
| 20260508124403 | 54 | 262 | 7.0 | 13.0 | 0.01 | 0.14 | 0.11 | 99 | 1008.5 |
| 20260508123903 | 54 | 290 | 6.0 | 12.0 | 0.01 | 0.14 | 0.11 | 99 | 1008.4 |
| 20260508123404 | 54 | 297 | 7.0 | 13.0 | 0.01 | 0.14 | 0.11 | 99 | 1008.4 |
| 20260508122904 | 54 | 285 | 9.0 | 13.0 | 0.01 | 0.14 | 0.11 | 99 | 1008.9 |
| 20260508122403 | 54 | 258 | 6.0 | 10.0 | 0.01 | 0.14 | 0.11 | 99 | 1009.1 |
| 20260508121403 | 55 | 257 | 2.0 | 8.0 | 0.00 | 0.13 | 0.10 | 99 | 1009.0 |
| 20260508120903 | 55 | 254 | 2.0 | 3.0 | 0.00 | 0.13 | 0.10 | 99 | 1008.8 |
| 20260508120403 | 55 | 243 | 4.0 | 6.0 | 0.00 | 0.13 | 0.10 | 99 | 1008.8 |
| 20260508115904 | 55 | 232 | 2.0 | 3.0 | 0.00 | 0.13 | 0.10 | 99 | 1008.8 |
| 20260508115404 | 55 | 182 | 0.0 | 1.0 | 0.00 | 0.13 | 0.10 | 99 | 1008.8 |